Regional Weather Roundup
Issued by NWS

Home | Current Version | Previous Version | Text Only | Print | Product List | Glossary On
Versions: 1 2 3 4 5 6 7 8 9 10 11 12 13 14 15 16 17 18 19 20 21 22 23 24 25 26 27 28 29 30 31 32 33 34 35 36 37 38 39 40 41 42 43 44 45 46 47 48 49 50
000
ASUS44 KFWD 261215
RWRTX
NORTH TEXAS HOURLY WEATHER ROUNDUP
NATIONAL WEATHER SERVICE FORT WORTH TX
600 AM CST SUN FEB 26 2017

NOTE: "FAIR" INDICATES FEW OR NO CLOUDS BELOW 12,000 FEET WITH NO
SIGNIFICANT WEATHER AND/OR OBSTRUCTIONS TO VISIBILITY.

TXZ118-119-261300-
DALLAS/FORT WORTH METROPLEX

CITY           SKY/WX    TMP DP  RH WIND       PRES   REMARKS
DFW AIRPORT    PTCLDY    41  30  65 SE7       29.96S WCI  36
6HR MIN TEMP:  40; 6HR MAX TEMP:  45;

DALLAS LOVE    PTCLDY    46  29  51 SE17      29.98F WCI  39
6HR MIN TEMP:  42; 6HR MAX TEMP:  47;

FTW MEACHAM    PTCLDY    41  29  62 SE10      29.96S WCI  35
6HR MIN TEMP:  39; 6HR MAX TEMP:  46;

DAL-EXECUTIVE  CLEAR     39  30  70 SE5       29.98S WCI  36
6HR MIN TEMP:  35; 6HR MAX TEMP:  42;

FTW-ALLIANCE   MOCLDY    38  27  64 CALM      29.95F
6HR MIN TEMP:  38; 6HR MAX TEMP:  42;

FTW-NAS-JRB    CLEAR     42  28  57 SE6       29.97S WCI  38
6HR MIN TEMP:  42; 6HR MAX TEMP:  46;

FTW-SPINKS     CLEAR     37  30  75 SE6       29.98F WCI  32
6HR MIN TEMP:  34; 6HR MAX TEMP:  40;

ARLINGTON      CLEAR     40  30  67 SE9       29.97F WCI  34
6HR MIN TEMP:  33; 6HR MAX TEMP:  41;

GRAND PRAIRIE  CLEAR     42  30  62 SE6       30.00S WCI  39
6HR MIN TEMP:  41; 6HR MAX TEMP:  43;

MESQUITE       CLEAR     37  29  72 SE5       30.01S WCI  34
6HR MIN TEMP:  37; 6HR MAX TEMP:  40;

LANCASTER      CLEAR     33  29  82 SE3       30.01R
6HR MIN TEMP:  33; 6HR MAX TEMP:  38;

$$

TXZ091>094-102>105-117-120-121-131>134-261300-
NORTH CENTRAL TEXAS

CITY           SKY/WX    TMP DP  RH WIND       PRES   REMARKS
SHRMAN/DENISON CLEAR     41  26  55 SE10      29.98S WCI  35
6HR MIN TEMP:  40; 6HR MAX TEMP:  43;

GAINESVILLE    CLEAR     36  28  74 SE7       29.97F WCI  30
6HR MIN TEMP:  33; 6HR MAX TEMP:  37;

BOWIE          CLEAR     39  28  66 SE8       29.92F WCI  33
6HR MIN TEMP:  37; 6HR MAX TEMP:  39;

BRIDGEPORT     CLEAR     39  28  64 SE10      29.95S WCI  32
6HR MIN TEMP:  37; 6HR MAX TEMP:  39;

DECATUR        CLEAR     38  26  62 SE8       29.93F WCI  32
6HR MIN TEMP:  38; 6HR MAX TEMP:  41;

DENTON         CLEAR     38  30  73 SE9       29.96F WCI  31
6HR MIN TEMP:  36; 6HR MAX TEMP:  40;

MCKINNEY       CLEAR     41  31  67 SE10      29.99S WCI  35
6HR MIN TEMP:  34; 6HR MAX TEMP:  41;

BONHAM         CLEAR     37  27  65 SE10      30.01R WCI  30
GREENVILLE       N/A     36  28  75 SE3       30.02S
ROCKWALL       CLEAR     40  30  66 SE7       30.00S WCI  36
6HR MIN TEMP:  39; 6HR MAX TEMP:  41;

TERRELL        CLEAR     39  28  64 SE5       30.02R WCI  36
6HR MIN TEMP:  35; 6HR MAX TEMP:  42;

WAXAHACHIE     CLEAR     37  32  83 E5        30.00R WCI  33
6HR MIN TEMP:  36; 6HR MAX TEMP:  40;

CLEBURNE       CLEAR     41  30  65 SE10      29.98S WCI  35
GRANBURY       CLEAR     41  32  70 E7        29.97S WCI  36
6HR MIN TEMP:  40; 6HR MAX TEMP:  43;

$$

TXZ083>090-098>101-113>116-127>130-139>142-154-155-261300-
WESTERN NORTH TEXAS

CITY           SKY/WX    TMP DP  RH WIND       PRES   REMARKS
WICHITA FALLS  CLEAR     34  27  75 SE9       29.90S WCI  27
6HR MIN TEMP:  31; 6HR MAX TEMP:  38;

WF-KICKAPOO    CLEAR     38  28  69 SE7       29.91F WCI  32
6HR MIN TEMP:  36; 6HR MAX TEMP:  40;

VERNON         CLEAR     37  26  65 SE6       29.89S WCI  32
6HR MIN TEMP:  36; 6HR MAX TEMP:  45;

ABILENE        CLEAR     44  30  57 S17       29.89R WCI  36
6HR MIN TEMP:  43; 6HR MAX TEMP:  45;

ABILENE-DYESS  CLEAR     46  31  54 S18       29.85R WCI  39
6HR MIN TEMP:  44; 6HR MAX TEMP:  48;

GRAHAM         CLEAR     39  30  70 SE6       29.90R WCI  35
BRECKENRIDGE   CLEAR     43  30  61 SW5       29.90R
6HR MIN TEMP:  43; 6HR MAX TEMP:  45;

CISCO          PTCLDY    43  30  61 S17       29.90S WCI  35
RANGER         CLEAR     43  30  61 S14G22    29.92S WCI  36
MINERAL WELLS  CLEAR     37  29  72 SE8       29.92F WCI  31
6HR MIN TEMP:  36; 6HR MAX TEMP:  40;

STEPHENVILLE   CLEAR     35  29  79 CALM      29.96F
6HR MIN TEMP:  35; 6HR MAX TEMP:  40;

COMANCHE       CLEAR     39  31  73 SE7       29.94S WCI  34
6HR MIN TEMP:  37; 6HR MAX TEMP:  41;

BROWNWOOD      CLOUDY    34  30  86 CALM      29.95S
COLEMAN        CLEAR     41  31  67 S7        29.93S WCI  36
6HR MIN TEMP:  39; 6HR MAX TEMP:  45;

$$

TXZ143>147-156>162-174-175-261300-
CENTRAL TEXAS

CITY           SKY/WX    TMP DP  RH WIND       PRES   REMARKS
WACO           CLEAR     41  32  70 SE7       29.99R WCI  36
6HR MIN TEMP:  34; 6HR MAX TEMP:  41;

WACO-MCGREGOR  CLEAR     36  31  82 S5        29.99R WCI  32
6HR MIN TEMP:  34; 6HR MAX TEMP:  42;

HILLSBORO      CLEAR     42  32  66 SE7       29.98R WCI  38
6HR MIN TEMP:  42; 6HR MAX TEMP:  45;

CORSICANA      CLEAR     45  35  68 SE12      30.01R WCI  39
6HR MIN TEMP:  40; 6HR MAX TEMP:  45;

MEXIA          CLEAR     41  32  70 SE12      29.99R WCI  34
6HR MIN TEMP:  40; 6HR MAX TEMP:  45;

HEARNE         CLEAR     42  34  73 CALM      30.02R
6HR MIN TEMP:  40; 6HR MAX TEMP:  45;

CAMERON        CLEAR     45  33  63 SE6       30.00R
6HR MIN TEMP:  41; 6HR MAX TEMP:  47;

TEMPLE         CLEAR     42  31  64 S3        29.99R
6HR MIN TEMP:  36; 6HR MAX TEMP:  45;

KILLEEN        CLEAR     36  31  82 SE6       29.97R WCI  31
6HR MIN TEMP:  36; 6HR MAX TEMP:  44;

KILLEEN-SKYLRK CLEAR     40  31  70 S5        29.99R WCI  37
6HR MIN TEMP:  38; 6HR MAX TEMP:  45;

FORT HOOD      CLEAR     40  31  70 S5        29.95S WCI  37
6HR MIN TEMP:  40; 6HR MAX TEMP:  44;

GATESVILLE     CLEAR     37  32  81 CALM      30.00R
HAMILTON       CLEAR     35  31  84 S8        29.97R WCI  29
6HR MIN TEMP:  35; 6HR MAX TEMP:  39;

LAMPASAS       CLEAR     40  32  74 S3        29.96R
6HR MIN TEMP:  38; 6HR MAX TEMP:  41;

$$

TXZ095>097-106>112-122>126-135>138-148>153-164>167-261300-
EAST TEXAS

CITY           SKY/WX    TMP DP  RH WIND       PRES   REMARKS
PARIS          CLEAR     34  25  69 SE10      30.03S WCI  26
6HR MIN TEMP:  34; 6HR MAX TEMP:  37;

SULPHUR SPRNGS CLEAR     38  28  66 SE3       30.05R
6HR MIN TEMP:  36; 6HR MAX TEMP:  39;

MOUNT PLEASANT CLEAR     37  29  72 CALM      30.07R
6HR MIN TEMP:  33; 6HR MAX TEMP:  38;

GILMER         CLEAR     37  31  76 SE3       30.04R
6HR MIN TEMP:  35; 6HR MAX TEMP:  39;

MINEOLA        CLEAR     36  30  80 SE5       30.03R WCI  32
TYLER          CLEAR     44  31  60 SE10      30.02R WCI  39
6HR MIN TEMP:  40; 6HR MAX TEMP:  44;

LONGVIEW       CLEAR     40  34  79 SE8       30.04S WCI  34
6HR MIN TEMP:  36; 6HR MAX TEMP:  42;

MARSHALL       CLEAR     39  30  70 SE3       30.08R
6HR MIN TEMP:  35; 6HR MAX TEMP:  39;

PALESTINE      CLEAR     44  35  70 SE7       30.02F WCI  40
JACKSONVILLE   CLEAR     44  34  68 SE8       30.03F WCI  39
HENDERSON      CLEAR     41  32  69 SE6       30.06R WCI  38
6HR MIN TEMP:  36; 6HR MAX TEMP:  41;

CENTER         SUNNY     40  38  92 CALM      30.08S
6HR MIN TEMP:  38; 6HR MAX TEMP:  43;

NACOGDOCHES    CLEAR     43  32  65 SE9       30.04R WCI  37
6HR MIN TEMP:  36; 6HR MAX TEMP:  43;

LUFKIN         CLEAR     39  33  79 SE7       30.06R WCI  34
6HR MIN TEMP:  39; 6HR MAX TEMP:  42;

$$

SUPPLEMENTAL OBSERVATIONS (CENTRAL)

CITY           SKY/WX    TMP DP  RH WIND       PRES   REMARKS
CADDO GRASSLND   N/A     39  30  70 S6          N/A  WCI  35
PAT MAYSE LAKE   N/A     37  25  60 E3          N/A
GREENVILLE       N/A     39  27  60 SE5         N/A  WCI  36
CEDAR HILL       N/A     43  32  65 SE10        N/A  WCI  37
M



USA.gov is the U.S. government's official web portal to all federal, state and local government web resources and services.